This is the latest recevied weather packets stored in our database for station/object W1LBM. If no packets are shown the sender has not sent any weather packets the latest 10 day(s).
| Time | Temp. | Humidity | Pressure | Rain* | Wind** | Luminosity | Snow |
|---|---|---|---|---|---|---|---|
| 1777826275 | 10° C | 53% | 1009.5 hPa | 0 mm | - | 254 W/m² | - |
| 1777825974 | 10° C | 52% | 1009.6 hPa | 0 mm | - | 313 W/m² | - |
| 1777825670 | 10° C | 51% | 1009.4 hPa | 0 mm | - | 277 W/m² | - |
| 1777825368 | 10° C | 53% | 1009.5 hPa | 0 mm | - | 266 W/m² | - |
| 1777825064 | 10° C | 55% | 1009.6 hPa | 0 mm | - | 297 W/m² | - |
| 1777824760 | 9.44° C | 55% | 1009.6 hPa | 0 mm | - | 299 W/m² | - |
| 1777824458 | 9.44° C | 55% | 1009.6 hPa | 0 mm | - | 241 W/m² | - |
| 1777824154 | 9.44° C | 60% | 1009.5 hPa | 0 mm | - | 285 W/m² | - |
| 1777823850 | 9.44° C | 60% | 1009.4 hPa | 0 mm | - | 353 W/m² | - |
| 1777823548 | 8.89° C | 63% | 1009.5 hPa | 0 mm | - | 418 W/m² | - |
| 1777823245 | 8.33° C | 66% | 1009.6 hPa | 0 mm | - | 214 W/m² | - |
| 1777822942 | 7.78° C | 67% | 1009.7 hPa | 0 mm | - | 137 W/m² | - |
| 1777822640 | 7.78° C | 66% | 1009.5 hPa | 0 mm | - | 97 W/m² | - |
| 1777822338 | 7.78° C | 66% | 1009.6 hPa | 0 mm | - | 84 W/m² | - |
| 1777822035 | 7.78° C | 68% | 1009.5 hPa | 0 mm | - | 88 W/m² | - |
| 1777821733 | 7.78° C | 67% | 1009.7 hPa | 0 mm | - | 98 W/m² | - |
| 1777821430 | 7.78° C | 67% | 1009.4 hPa | 0 mm | - | 80 W/m² | - |
| 1777821127 | 8.33° C | 67% | 1009.4 hPa | 0 mm | - | 87 W/m² | - |
| 1777820824 | 8.33° C | 67% | 1009.4 hPa | 0 mm | - | 73 W/m² | - |
| 1777820520 | 8.33° C | 67% | 1009.4 hPa | 0 mm | - | 127 W/m² | - |
| 1777820217 | 8.89° C | 67% | 1009.4 hPa | 0 mm | - | 254 W/m² | - |
| 1777819914 | 8.33° C | 66% | 1009.2 hPa | 0 mm | - | 215 W/m² | - |
| 1777819611 | 8.33° C | 66% | 1009.4 hPa | 0 mm | - | 240 W/m² | - |
| 1777819309 | 8.33° C | 68% | 1009.2 hPa | 0 mm | - | 167 W/m² | - |
| 1777819005 | 8.33° C | 69% | 1009.4 hPa | 0 mm | - | 145 W/m² | - |
* Rain latest hour (hover to see other rain measurements)
** Current wind speed in m/s (hover to see current wind gust speed)